Wind_Speed
17 14 14 11 10 13 13 10 11 12 15 15 17 17 17 15 14 16 16 13 10 8 5 4 4 4 4 4 4 5 6 7 8 9 10 10 10 11 11 12 12 13 12
19 17 15 12 12 17 15 16 11 10 11 14 12 11 15 17 16 18 20 16 12 8 6 4 4 4 4 5 5 6 7 8 9 10 11 12 12 12 13 14 14 14 14
22 20 18 17 12 11 11 16 16 15 16 16 15 12 14 19 23 25 26 19 13 7 6 4 4 4 5 6 6 7 8 10 11 12 13 14 15 16 15 14 14 14 15
23 20 18 18 16 20 16 17 18 19 15 16 15 15 17 21 20 21 20 18 9 3 4 5 6 6 6 8 10 11 11 12 13 14 15 15 14 14 14 15 15 15 15
27 23 22 18 15 17 22 21 20 18 15 15 15 15 17 20 22 17 22 23 16 9 8 7 7 7 9 9 10 12 13 13 13 11 9 10 12 13 13 13 14 15 17
26 21 22 19 21 12 15 19 19 18 15 13 14 14 12 14 11 11 17 24 20 15 10 7 8 9 9 11 13 12 11 11 8 8 9 10 11 12 13 13 14 15 16
29 25 20 28 21 16 14 17 19 18 16 12 11 10 7 5 7 12 14 15 15 12 7 7 9 11 13 14 14 12 9 8 9 9 10 11 11 12 14 15 18 19 20
26 21 18 20 20 19 15 18 19 19 16 13 11 10 11 10 9 12 13 12 11 8 6 8 9 12 14 14 13 11 10 11 10 10 11 13 15 17 19 19 19 20 24
20 24 25 24 26 21 18 21 20 20 19 13 13 13 15 14 11 11 11 10 11 10 8 8 10 14 14 12 10 11 11 11 10 12 14 16 17 19 20 21 23 25 25
22 23 25 27 31 26 25 24 22 23 21 17 18 17 18 18 16 14 13 13 12 11 9 10 12 15 15 12 11 12 13 13 14 15 15 16 19 19 21 23 25 27 28
21 19 20 27 33 33 35 28 28 25 22 21 22 21 21 23 20 18 16 14 14 13 12 12 13 16 15 13 12 12 13 13 14 14 17 21 23 26 30 30 28 28 29
21 22 22 26 29 31 35 30 36 35 26 31 23 25 26 27 22 19 18 17 15 15 15 14 14 16 15 14 14 13 13 14 13 13 14 19 22 25 28 29 28 26 30
23 22 25 28 29 28 29 30 32 34 33 33 28 29 26 26 26 22 21 19 18 17 17 14 15 16 16 15 15 14 14 13 11 14 19 23 26 29 28 28 30 30 30
25 24 28 29 30 30 31 32 32 34 33 34 29 29 27 26 29 25 22 21 17 17 16 16 16 17 16 16 16 15 14 13 13 16 20 23 26 29 29 29 27 27 29
30 28 28 28 28 30 33 31 34 29 25 24 15 26 31 26 28 24 21 18 16 20 16 16 18 17 15 16 15 14 14 12 15 17 21 24 27 27 26 27 29 31 31
26 27 29 30 30 31 32 34 33 32 26 19 22 21 29 29 27 25 23 22 19 17 16 18 18 16 15 15 14 15 14 13 14 18 22 24 27 27 27 27 29 31 31
23 25 25 28 29 32 34 35 35 31 29 27 35 32 31 35 32 29 24 21 19 17 17 18 18 16 14 15 16 14 13 14 16 20 22 25 27 27 29 30 30 31 31
25 22 25 30 32 31 30 29 30 31 16 19 31 34 37 39 36 28 22 18 19 18 18 19 17 15 15 16 16 15 17 19 20 21 22 25 26 27 29 31 32 33 32
24 26 27 27 25 25 27 34 37 35 33 30 30 33 37 32 26 23 22 20 20 18 18 17 15 15 16 16 16 17 18 18 19 20 23 26 28 29 29 32 33 34 34
24 21 8 6 9 12 21 32 39 31 28 30 28 27 28 23 21 19 19 19 18 18 17 16 15 16 16 16 17 17 17 18 18 19 24 25 28 30 30 32 34 34 33
12 8 13 9 12 14 14 17 27 30 39 31 26 26 22 20 20 20 19 18 18 17 15 15 17 16 15 16 15 15 15 15 15 20 22 26 29 30 30 32 34 33 34
9 10 13 13 13 12 10 13 14 21 26 28 26 23 23 24 22 20 19 19 16 13 14 17 16 15 14 14 15 14 14 14 16 19 25 26 28 30 29 32 33 32 32
8 10 15 16 15 13 12 14 19 23 24 24 22 20 20 19 19 20 18 15 14 14 16 16 14 15 14 16 16 17 17 16 17 21 23 24 27 28 29 31 31 31 31
14 16 12 11 13 16 16 17 19 21 19 17 18 20 20 19 19 17 16 15 15 16 16 14 12 12 14 18 19 16 17 17 19 23 23 23 25 26 29 30 30 30 29
20 18 14 12 15 18 21 21 20 18 18 19 20 20 19 17 18 18 17 17 17 16 13 12 14 15 17 18 16 16 17 20 20 22 25 24 24 24 28 28 28 28 27
22 20 15 15 20 20 18 19 17 17 17 17 18 18 17 17 18 18 18 19 18 15 15 15 13 14 19 17 16 14 15 16 20 23 23 23 22 24 28 28 27 27 25
Wind_Direction
212 225 237 257 276 273 263 249 272 289 298 295 284 272 261 270 273 286 289 293 300 293 286 291 293 301 300 312 322 317 314 317 321 325 326 324 322 320 319 320 317 316 313
218 229 241 257 277 288 292 280 275 278 318 323 302 265 260 265 263 267 277 285 289 282 276 283 286 293 310 319 321 317 317 315 316 317 316 313 315 317 315 313 312 312 311
223 232 241 254 269 271 287 274 269 268 299 321 312 291 269 272 275 270 264 259 261 260 274 281 286 297 311 313 314 318 317 317 315 313 314 315 316 316 320 322 322 320 322
225 234 252 257 262 266 264 273 278 269 287 303 302 288 282 282 270 273 249 227 230 244 283 288 301 312 322 318 319 317 315 311 308 307 309 312 314 318 322 325 326 325 324
224 225 236 246 260 280 258 266 274 281 277 288 297 296 287 282 276 244 217 212 209 279 294 293 299 312 313 315 306 306 303 302 305 309 318 321 322 321 320 323 323 324 325
218 224 255 242 255 263 264 257 262 274 264 278 295 296 292 287 247 220 217 219 237 255 254 270 290 301 308 308 306 301 302 305 304 312 314 318 318 322 329 327 324 326 324
222 243 280 225 240 252 253 248 252 264 255 273 291 292 256 239 178 186 194 204 219 228 245 284 305 318 314 309 305 307 303 306 315 317 323 325 326 323 322 321 323 323 320
226 241 230 227 233 248 237 235 246 253 247 258 276 263 234 218 197 184 193 204 210 222 246 284 310 319 318 314 312 308 308 313 318 323 327 327 327 323 320 319 316 314 320
265 248 245 235 231 240 233 226 238 248 240 248 261 254 233 224 220 217 214 215 220 229 250 289 311 319 324 311 304 301 301 307 319 326 325 321 316 314 316 319 321 318 316
271 255 242 234 226 227 226 224 222 227 231 241 255 254 238 228 228 232 232 227 230 237 255 287 311 320 320 306 300 305 313 322 326 323 316 314 318 318 316 316 315 317 318
249 243 241 237 233 232 231 242 225 229 224 234 252 257 244 234 229 234 236 235 238 246 260 283 303 312 313 303 301 305 311 314 315 316 318 321 322 323 324 325 323 321 319
259 260 258 249 244 242 244 249 237 250 270 237 241 257 252 236 230 236 239 237 240 249 257 276 299 310 314 303 301 304 303 303 311 319 320 316 321 324 323 322 318 315 313
267 262 257 258 256 248 249 249 254 261 255 241 261 244 252 244 235 237 239 238 236 246 259 279 296 308 309 299 298 298 296 303 310 315 319 321 321 319 317 315 316 315 317
272 265 261 255 254 252 250 251 254 257 258 269 287 240 244 237 235 237 238 238 239 251 262 279 295 302 298 296 293 294 299 303 307 316 321 321 323 324 321 321 321 318 318
276 270 266 262 258 256 257 256 254 259 248 267 293 224 229 237 236 237 236 234 236 253 261 281 292 295 296 293 290 296 296 293 306 317 319 322 326 325 324 323 323 324 324
285 271 265 261 256 255 253 253 253 244 245 219 175 202 235 234 223 227 227 229 240 247 261 278 287 293 290 289 291 290 286 292 302 315 317 322 326 328 330 329 329 329 326
287 278 276 270 262 256 248 247 242 247 229 233 225 226 223 224 218 219 217 227 238 248 263 277 284 288 291 286 281 280 286 286 295 309 314 322 328 332 334 335 333 330 328
289 289 279 274 269 256 246 236 232 219 232 276 212 195 199 213 215 219 219 233 236 248 264 274 280 288 282 275 276 279 284 288 291 305 316 322 328 329 332 335 334 333 331
289 293 286 271 252 245 235 227 215 222 226 246 203 203 207 213 212 211 219 229 236 252 266 272 276 277 271 270 272 278 284 285 292 306 317 322 329 329 328 332 333 333 332
288 298 255 239 233 226 223 223 218 227 215 215 219 215 213 205 204 219 222 227 241 258 264 268 269 266 262 266 274 281 285 288 296 309 317 319 324 328 327 330 333 332 331
277 202 189 152 155 159 155 160 181 187 193 204 204 210 197 206 212 213 221 234 248 254 258 262 256 254 258 269 282 287 288 294 294 306 317 317 321 327 327 330 332 332 331
221 187 186 212 205 197 191 173 178 175 182 189 195 191 201 203 209 219 230 240 247 252 254 250 246 248 259 283 295 286 285 290 297 307 316 317 320 327 328 329 331 331 331
256 264 256 248 220 211 192 184 181 184 188 192 202 200 205 211 222 231 234 238 249 251 245 240 242 248 273 289 291 285 289 295 303 316 319 319 321 326 327 329 331 331 331
242 253 278 222 200 191 182 184 186 185 195 210 214 207 210 214 225 231 235 240 244 242 237 243 242 257 280 286 285 289 294 300 304 317 323 319 321 324 328 330 331 332 331
244 236 247 224 198 185 185 188 194 205 207 204 205 209 215 224 229 229 229 232 241 240 241 258 265 277 282 280 274 282 293 308 312 317 321 321 321 325 328 331 332 333 333
241 219 219 198 193 187 188 191 193 195 199 207 213 220 231 234 229 226 229 238 240 242 245 244 263 280 282 281 277 288 308 318 323 323 322 323 324 329 331 333 333 335 334
Height
3193 3193 3193 3194 3196 3196 3195 3195 3194 3195 3194 3193 3192 3192 3193 3195 3195 3196 3197 3196 3195 3194 3193 3193 3192 3191 3191 3190 3190 3189 3188 3186 3185 3184 3183 3181 3180 3178 3176 3174 3172 3171 3170
3190 3191 3192 3193 3193 3192 3193 3194 3193 3192 3191 3188 3187 3188 3188 3189 3191 3192 3193 3194 3194 3193 3192 3192 3191 3190 3190 3189 3188 3187 3186 3184 3183 3181 3179 3178 3177 3175 3173 3171 3169 3167 3166
3188 3189 3190 3190 3191 3191 3191 3191 3191 3191 3190 3187 3185 3184 3185 3185 3186 3186 3187 3190 3193 3192 3192 3191 3190 3189 3188 3187 3186 3184 3184 3182 3181 3179 3177 3175 3173 3172 3170 3168 3167 3165 3162
3186 3187 3187 3188 3189 3188 3188 3188 3189 3189 3188 3186 3184 3182 3181 3181 3181 3180 3182 3187 3190 3190 3190 3190 3190 3188 3187 3186 3184 3183 3181 3179 3178 3176 3174 3172 3171 3169 3167 3165 3163 3162 3160
3182 3185 3183 3184 3184 3184 3184 3185 3186 3187 3185 3184 3182 3180 3178 3177 3176 3177 3179 3183 3187 3187 3188 3189 3189 3187 3186 3183 3182 3180 3178 3177 3175 3173 3171 3170 3168 3167 3166 3164 3161 3159 3157
3179 3180 3178 3178 3181 3180 3180 3182 3183 3183 3182 3181 3180 3178 3176 3175 3173 3175 3179 3182 3185 3186 3187 3186 3185 3184 3182 3181 3179 3177 3176 3174 3173 3172 3170 3168 3167 3165 3163 3161 3159 3156 3155
3172 3174 3175 3173 3175 3175 3176 3179 3180 3180 3179 3179 3179 3176 3176 3176 3174 3175 3177 3180 3183 3185 3185 3185 3184 3183 3181 3178 3175 3173 3172 3172 3171 3169 3167 3165 3164 3162 3160 3158 3155 3153 3150
3163 3165 3168 3169 3170 3170 3172 3173 3175 3176 3177 3176 3176 3174 3175 3176 3176 3176 3178 3179 3180 3181 3182 3183 3182 3180 3178 3176 3173 3172 3170 3168 3167 3165 3164 3162 3160 3158 3156 3155 3153 3150 3146
3158 3160 3161 3162 3161 3165 3165 3168 3171 3173 3174 3174 3173 3173 3174 3175 3176 3177 3177 3177 3178 3180 3181 3180 3179 3178 3175 3172 3170 3170 3169 3167 3164 3162 3161 3159 3157 3156 3154 3151 3148 3145 3142
3151 3152 3153 3154 3154 3155 3157 3158 3161 3168 3169 3170 3171 3171 3171 3172 3173 3174 3175 3176 3178 3177 3178 3178 3177 3175 3172 3170 3169 3168 3165 3164 3161 3159 3157 3156 3154 3151 3149 3147 3142 3138 3134
3143 3142 3142 3143 3145 3146 3146 3149 3154 3158 3161 3165 3168 3169 3168 3169 3168 3171 3173 3174 3175 3176 3176 3175 3173 3171 3169 3167 3165 3164 3164 3162 3160 3157 3156 3153 3150 3146 3142 3137 3135 3131 3126
3139 3139 3138 3137 3137 3140 3141 3145 3144 3149 3153 3159 3161 3165 3165 3165 3165 3167 3169 3170 3171 3172 3173 3171 3169 3168 3165 3163 3161 3160 3159 3158 3157 3156 3155 3151 3148 3144 3139 3134 3130 3127 3121
3131 3132 3131 3132 3132 3134 3137 3138 3139 3139 3140 3149 3151 3156 3159 3161 3161 3162 3163 3165 3166 3168 3169 3168 3165 3163 3161 3160 3159 3157 3157 3155 3154 3153 3151 3148 3143 3139 3135 3130 3125 3121 3116
3121 3123 3123 3124 3126 3125 3128 3129 3130 3130 3132 3133 3135 3149 3151 3153 3156 3157 3158 3160 3162 3164 3165 3164 3162 3160 3159 3156 3156 3154 3153 3153 3152 3149 3147 3143 3139 3135 3129 3124 3120 3116 3112
3111 3113 3112 3113 3114 3114 3114 3118 3119 3121 3125 3126 3122 3129 3140 3145 3149 3152 3154 3155 3158 3160 3160 3159 3158 3156 3154 3153 3151 3151 3150 3149 3147 3145 3143 3139 3135 3130 3125 3119 3115 3110 3104
3101 3102 3102 3102 3103 3104 3103 3107 3108 3111 3114 3117 3119 3128 3137 3139 3142 3146 3147 3149 3153 3154 3154 3154 3153 3151 3151 3150 3149 3148 3147 3144 3143 3141 3139 3135 3131 3125 3121 3116 3110 3104 3099
3095 3093 3091 3090 3090 3091 3094 3097 3099 3103 3106 3110 3113 3118 3122 3131 3134 3137 3140 3144 3147 3149 3149 3149 3148 3146 3144 3146 3146 3146 3144 3142 3140 3138 3135 3130 3125 3120 3115 3110 3105 3100 3095
3089 3086 3084 3082 3080 3080 3081 3085 3090 3094 3098 3098 3101 3107 3114 3122 3126 3131 3136 3139 3141 3143 3144 3144 3142 3141 3141 3142 3142 3141 3140 3138 3136 3134 3130 3125 3120 3115 3111 3105 3099 3094 3089
3081 3078 3072 3068 3066 3069 3071 3074 3079 3086 3090 3099 3100 3105 3111 3117 3121 3126 3131 3135 3137 3138 3139 3138 3137 3136 3137 3137 3137 3137 3136 3134 3132 3129 3124 3120 3115 3111 3106 3100 3095 3088 3083
3074 3069 3064 3062 3061 3061 3061 3064 3071 3077 3086 3093 3099 3104 3110 3113 3118 3122 3126 3129 3131 3133 3133 3132 3133 3133 3134 3134 3133 3132 3130 3129 3126 3123 3119 3115 3111 3106 3101 3095 3089 3084 3078
3069 3068 3067 3066 3064 3065 3065 3066 3068 3073 3081 3091 3098 3103 3108 3112 3116 3119 3122 3125 3127 3128 3128 3128 3128 3129 3129 3130 3130 3127 3126 3124 3123 3119 3115 3111 3106 3101 3096 3090 3084 3079 3073
3065 3068 3066 3068 3069 3069 3070 3071 3075 3080 3086 3091 3097 3101 3104 3107 3110 3114 3118 3121 3121 3122 3123 3124 3124 3125 3126 3126 3125 3123 3122 3121 3119 3115 3110 3106 3101 3096 3091 3086 3080 3074 3068
3065 3065 3066 3066 3068 3069 3071 3074 3079 3083 3088 3092 3095 3098 3101 3105 3108 3112 3113 3114 3116 3118 3120 3120 3121 3121 3121 3120 3120 3119 3117 3116 3114 3110 3105 3101 3096 3091 3087 3081 3075 3070 3064
3063 3064 3063 3064 3066 3069 3072 3076 3080 3083 3087 3090 3092 3096 3100 3103 3105 3106 3108 3110 3112 3114 3115 3116 3117 3118 3118 3116 3115 3113 3112 3111 3108 3104 3101 3096 3092 3086 3082 3077 3071 3065 3059
3059 3061 3061 3062 3066 3069 3073 3076 3080 3084 3086 3089 3092 3094 3097 3099 3101 3103 3105 3107 3108 3110 3110 3112 3113 3113 3112 3111 3111 3109 3108 3106 3103 3099 3095 3091 3087 3083 3078 3073 3067 3061 3056
3054 3054 3057 3060 3064 3068 3071 3075 3077 3080 3083 3087 3089 3091 3093 3095 3097 3099 3101 3103 3104 3105 3107 3109 3108 3108 3107 3106 3105 3104 3103 3101 3098 3094 3090 3086 3082 3078 3074 3068 3063 3057 3052